TDRS 8                  
1 26388U 00034A   19265.45189478 -.00000233  00000-0  00000+0 0  9991
2 26388   8.8120  49.4153 0009562 301.1032 262.3460  1.00266729 70504
ATLAS 2A CENTAUR R/B    
1 26389U 00034B   19265.08493839  .00010248  00000-0  67982-3 0  9992
2 26389  26.8491 213.8046 5449443 326.8511   8.4994  4.94794748287178